NE2X Weather Reports


time (UTC)temp
C
wind
direction
speed
KPH
gust
KPH
rain 1hr
cm
rain 24hr
cm
rain mn
cm
humidity
%
barometer
mb
20260506122704 18 186 6.4 24.1 0.00 0.00 0.00 71 1009.0
20260506121803 18 199 6.4 22.5 0.00 0.00 0.00 71 1009.2
20260506120903 18 192 6.4 17.7 0.00 0.00 0.00 71 1009.2
20260506120003 19 175 6.4 20.9 0.00 0.00 0.00 71 1009.4
20260506115425 18 196 6.4 17.7 0.00 0.00 0.00 71 1009.5
20260506114503 18 202 6.4 19.3 0.00 0.00 0.00 72 1009.5
20260506113604 18 178 6.4 19.3 0.00 0.00 0.00 72 1009.6
20260506112706 18 186 4.8 16.1 0.00 0.00 0.00 72 1009.5
20260506111803 18 200 6.4 17.7 0.00 0.00 0.00 73 1009.5
20260506110903 18 190 9.7 27.4 0.00 0.00 0.00 74 1009.3
20260506110004 18 183 6.4 19.3 0.00 0.00 0.00 74 1009.2
20260506105403 18 187 6.4 19.3 0.00 0.00 0.00 75 1009.2
20260506104504 17 192 6.4 17.7 0.00 0.00 0.00 76 1009.2
20260506103603 17 186 6.4 22.5 0.00 0.00 0.00 76 1009.3
20260506102703 17 181 4.8 12.9 0.00 0.00 0.00 77 1009.3
20260506101804 17 192 6.4 22.5 0.00 0.00 0.00 77 1009.2
20260506100904 17 202 4.8 22.5 0.00 0.00 0.00 78 1009.1
20260506100004 17 180 4.8 12.9 0.00 0.00 0.00 79 1009.0
20260506095404 17 182 4.8 11.3 0.00 0.00 0.00 79 1009.0
20260506094504 16 192 3.2 12.9 0.00 0.00 0.00 79 1009.1
20260506093603 17 190 3.2 16.1 0.00 0.00 0.00 79 1009.0
20260506092704 17 187 3.2 11.3 0.00 0.00 0.00 78 1009.1
20260506091803 17 201 3.2 11.3 0.00 0.00 0.00 78 1009.2
20260506090904 17 202 4.8 9.7 0.00 0.00 0.00 77 1009.2
20260506090004 17 180 4.8 14.5 0.00 0.00 0.00 77 1009.2
20260506085425 17 180 4.8 14.5 0.00 0.00 0.00 76 1009.2
20260506084504 17 187 4.8 14.5 0.00 0.00 0.00 76 1009.2
20260506083603 17 196 3.2 11.3 0.00 0.00 0.00 76 1009.3
20260506082725 17 201 3.2 9.7 0.00 0.00 0.00 75 1009.3
20260506081803 17 189 6.4 17.7 0.00 0.00 0.00 75 1009.4
20260506080924 17 195 4.8 12.9 0.00 0.00 0.00 74 1009.3
20260506072703 18 187 4.8 16.1 0.00 0.00 0.00 72 1009.4
20260506071804 18 187 6.4 16.1 0.00 0.00 0.00 71 1009.4
20260506070925 18 172 4.8 14.5 0.00 0.00 0.00 71 1009.5
20260506061824 18 197 4.8 12.9 0.00 0.00 0.00 68 1009.5
20260506060903 18 182 4.8 16.1 0.00 0.00 0.00 67 1009.4
20260506050903 20 174 4.8 16.1 0.00 0.00 0.00 63 1010.1
20260506044524 20 203 4.8 14.5 0.00 0.00 0.00 62 1010.0
20260506043603 20 183 6.4 24.1 0.00 0.00 0.00 61 1010.1
20260506042703 20 191 6.4 25.7 0.00 0.00 0.00 61 1010.1
20260506041804 20 200 6.4 27.4 0.00 0.00 0.00 60 1010.0
20260506040904 20 177 8.0 27.4 0.00 0.00 0.00 60 1009.9
20260506040004 20 196 8.0 27.4 0.00 0.00 0.00 59 1009.9
20260506035404 20 190 6.4 27.4 0.00 0.00 0.00 59 1009.9
20260506034504 20 197 8.0 30.6 0.00 0.00 0.00 59 1010.0
20260506033604 20 189 6.4 25.7 0.00 0.00 0.00 58 1010.0
20260506032704 21 187 8.0 27.4 0.00 0.00 0.00 57 1009.9
20260506031804 21 192 6.4 17.7 0.00 0.00 0.00 57 1009.9
20260506030904 21 196 6.4 22.5 0.00 0.00 0.00 57 1009.9
20260506030005 21 199 8.0 20.9 0.00 0.00 0.00 56 1009.8
20260506025404 21 187 6.4 17.7 0.00 0.00 0.00 56 1009.7
20260506024503 21 184 8.0 33.8 0.00 0.00 0.00 55 1009.8
20260506023604 21 190 9.7 22.5 0.00 0.00 0.00 55 1009.9
20260506022703 21 189 8.0 22.5 0.00 0.00 0.00 54 1009.9
20260506021803 22 187 9.7 24.1 0.00 0.00 0.00 53 1009.8
20260506020903 22 194 9.7 27.4 0.00 0.00 0.00 52 1009.8
20260506020004 22 181 9.7 24.1 0.00 0.00 0.00 50 1009.8
20260506015404 22 187 8.0 22.5 0.00 0.00 0.00 49 1009.6
20260506014503 23 189 8.0 22.5 0.00 0.00 0.00 46 1009.6
20260506013603 23 180 8.0 22.5 0.00 0.00 0.00 44 1009.4
20260506012703 23 181 8.0 32.2 0.00 0.00 0.00 43 1009.4
20260506011824 23 188 6.4 32.2 0.00 0.00 0.00 42 1009.2
20260506010904 24 190 6.4 25.7 0.00 0.00 0.00 42 1009.2
20260506010024 24 191 6.4 22.5 0.00 0.00 0.00 42 1009.1
20260506005403 24 201 6.4 22.5 0.00 0.00 0.00 41 1009.0
20260506004503 24 186 4.8 22.5 0.00 0.00 0.00 41 1008.8
20260506003605 25 187 4.8 17.7 0.00 0.00 0.00 40 1008.9
20260506002703 25 191 8.0 19.3 0.00 0.00 0.00 38 1008.8
20260506001803 25 186 6.4 17.7 0.00 0.00 0.00 37 1008.7
20260506000904 25 196 4.8 19.3 0.00 0.00 0.00 36 1008.7
20260506000026 25 204 6.4 24.1 0.00 0.00 0.00 35 1008.4
20260505235425 25 215 4.8 16.1 0.00 0.00 0.00 34 1008.5
20260505234504 25 218 8.0 22.5 0.00 0.00 0.00 34 1008.4
20260505233625 26 211 8.0 24.1 0.00 0.00 0.00 34 1008.3
20260505232726 26 185 6.4 24.1 0.00 0.00 0.00 34 1008.4
20260505231804 26 184 8.0 25.7 0.00 0.00 0.00 32 1008.1
20260505230904 26 184 6.4 24.1 0.00 0.00 0.00 32 1008.1
20260505230004 26 181 4.8 25.7 0.00 0.00 0.00 30 1008.0
20260505225405 26 199 6.4 25.7 0.00 0.00 0.00 30 1007.9
20260505224504 26 206 8.0 30.6 0.00 0.00 0.00 29 1007.7
20260505223604 26 190 8.0 19.3 0.00 0.00 0.00 29 1007.5
20260505222704 27 211 9.7 22.5 0.00 0.00 0.00 29 1007.6
20260505221804 27 236 6.4 24.1 0.00 0.00 0.00 30 1007.6
20260505220904 27 262 4.8 22.5 0.00 0.00 0.00 31 1007.6
20260505220004 27 263 6.4 27.4 0.00 0.00 0.00 30 1007.5
20260505215404 27 230 8.0 24.1 0.00 0.00 0.00 30 1007.4
20260505214504 27 215 6.4 16.1 0.00 0.00 0.00 30 1007.4
20260505213604 27 257 9.7 30.6 0.00 0.00 0.00 29 1007.3
20260505212725 27 293 8.0 30.6 0.00 0.00 0.00 29 1007.2
20260505211804 28 218 8.0 30.6 0.00 0.00 0.00 29 1007.2
20260505210904 28 201 11.3 37.0 0.00 0.00 0.00 29 1007.1
20260505210004 28 220 8.0 25.7 0.00 0.00 0.00 30 1007.1
20260505205404 28 222 8.0 25.7 0.00 0.00 0.00 29 1006.9
20260505204503 28 227 8.0 27.4 0.00 0.00 0.00 29 1006.9
20260505203604 28 238 8.0 24.1 0.00 0.00 0.00 31 1007.0
20260505202704 28 209 8.0 27.4 0.00 0.00 0.00 30 1007.2
20260505201803 28 203 9.7 25.7 0.00 0.00 0.00 30 1007.2
20260505200904 28 204 9.7 29.0 0.00 0.00 0.00 30 1007.3
20260505200025 28 197 11.3 35.4 0.00 0.00 0.00 30 1007.3
20260505195404 28 196 11.3 32.2 0.00 0.00 0.00 30 1007.4
20260505194504 28 195 11.3 38.6 0.00 0.00 0.00 30 1007.4
20260505193604 28 206 11.3 33.8 0.00 0.00 0.00 30 1007.6
20260505192727 28 201 12.9 32.2 0.00 0.00 0.00 30 1007.8
20260505191804 28 176 12.9 38.6 0.00 0.00 0.00 32 1007.8
20260505190904 28 194 9.7 30.6 0.00 0.00 0.00 31 1008.0
20260505190025 28 184 11.3 30.6 0.00 0.00 0.00 32 1008.1
20260505185404 28 184 11.3 32.2 0.00 0.00 0.00 33 1008.2
20260505184525 28 188 9.7 32.2 0.00 0.00 0.00 32 1008.7
20260505183605 28 200 9.7 27.4 0.00 0.00 0.00 35 1008.6
20260505182703 27 190 9.7 30.6 0.00 0.00 0.00 37 1008.6
20260505181803 27 194 11.3 33.8 0.00 0.00 0.00 36 1008.6
20260505180905 27 190 14.5 30.6 0.00 0.00 0.00 36 1008.7
20260505180004 27 173 12.9 48.3 0.00 0.00 0.00 35 1008.9
20260505175404 27 176 11.3 32.2 0.00 0.00 0.00 36 1008.6
20260505174503 27 184 11.3 30.6 0.00 0.00 0.00 35 1008.8
20260505173603 27 182 8.0 25.7 0.00 0.00 0.00 38 1008.9
20260505172724 27 185 4.8 17.7 0.00 0.00 0.00 39 1009.1
20260505171803 27 198 8.0 25.7 0.00 0.00 0.00 39 1009.2
20260505170924 27 203 4.8 25.7 0.00 0.00 0.00 40 1009.2
20260505170003 27 182 6.4 29.0 0.00 0.00 0.00 39 1009.3
20260505165403 26 183 9.7 29.0 0.00 0.00 0.00 40 1009.5
20260505164504 26 199 6.4 22.5 0.00 0.00 0.00 41 1009.6
20260505163605 27 186 4.8 14.5 0.00 0.00 0.00 41 1009.7
20260505162703 26 225 4.8 16.1 0.00 0.00 0.00 42 1009.9
20260505161803 26 203 8.0 27.4 0.00 0.00 0.00 41 1010.1
20260505160924 26 200 6.4 22.5 0.00 0.00 0.00 44 1010.0
20260505152704 25 185 4.8 14.5 0.00 0.00 0.00 45 1010.7
20260505151803 24 233 4.8 16.1 0.00 0.00 0.00 47 1010.8
20260505150903 24 218 3.2 22.5 0.00 0.00 0.00 49 1010.8
20260505124505 19 184 4.8 14.5 0.00 0.00 0.00 62 1010.7
20260505123604 18 202 6.4 14.5 0.00 0.00 0.00 65 1010.7